Location: ????????
(60.4333°N, 46.4710°E)
Time: 18:24:43
(UTC+00:00)

Cosmos 921 Rocket - Pass Details

Date: 25 November 2020
Orbit: 572 x 631 km, 75.8° (Epoch: 16 January)

Event Time Altitude Azimuth Distance (km) Brightness Sun altitude
Rises 13:11:49 0° 204° (SSW) 2,912 7.5 -7.8°
Reaches altitude 10° 13:14:03 10° 204° (SSW) 2,012 6.6 -8.0°
Maximum altitude 13:18:34 84° 119° (ESE) 644 3.1 -8.5°
Drops below altitude 10° 13:23:07 10° 30° (NNE) 2,026 5.2 -9.0°
Enters shadow 13:23:43 - 30° (NNE) 2,267 5.4 -9.0°
